Location: Bidwell Hollow
(37.7387°N, 90.1707°W)
Time: 01:18:27
(UTC+00:00)

Courier 1B Rocket - Visible Passes

Search period start: 14 May 2026 00:00
Search period end: 24 May 2026 00:00
Orbit: 920 x 1201 km, 28.2° (Epoch: 13 May)

Date Brightness Start Highest point End Pass type
(mag) Time Alt. Az. Time Alt. Az. Time Alt. Az.
20 May 7.1 09:52:50 10° SSE 09:54:22 11° SSE 09:55:54 10° SE visible
22 May 6.8 09:41:02 10° SSW 09:44:56 16° SSE 09:48:44 10° ESE visible
23 May 7.0 08:42:50 11° SSE 08:43:57 12° SSE 08:46:17 10° SE visible
